Content
SEND FEEDBACK

Daily
Averages
Monthly
Summary
Canada

VANCOUVER, BRITISH COLUMBIA


Home > North America > Canada > British Columbia
Elevation: 7 feet     Latitude: 49 11N     Longitude: 123 10W

WEATHER
 
SELECT A DAY
Number of Records: 249,596;   Date Range: 5/15/97 - 8/20/14
 
SHARE

PRINT THIS DATA

[ ← Previous Day ]
WEATHER ALMANAC - MAY 9, 2013
[ Next Day → ]
[ °C ]   °F
Weather ElementAverageHighLow
Temperature55.6 °F64.4 °F (4:35 pm)48.2 °F (4:55 am)
Dewpoint48.8 °F51.8 °F (2:15 pm)46.4 °F (1:15 am)
Humidity78.4 %94 % (8:35 am)63 % (3:35 pm)
Barometer30.16 in30.21 in (8:15 am)30.11 in (6:55 pm)
Wind Speed6.6 mph13.8 mph (1:55 am)
Wind Gust21.9 mph (4:55 am)
Weather ElementAverage
Visibility9.3 mi
Wind DirectionS (183.1 °)

Weather ElementTotal
Precipitation---
Heating Degree Days8.7 (Base 65)
Growing Degree Days6.3 (Base 50)
Averaged from 58 records on May 9, 2013
WEATHER CONDITIONS BREAKOUT
WIND DIRECTION BREAKOUT
WEATHER BY HOUR - MAY 9, 2013
[ °C ]   °F
Local TimeTemperatureDewpointHumidityBarometerVisibilityWind DirectionWind SpeedGust SpeedPrecipitationEventsConditions
1:15 AM50.0 °F46.4 °F87 %30.13 in10.0 miSouth (180°)12.7 mph20.7 mphClear
1:35 AM50.0 °F46.4 °F87 %30.13 in10.0 miSouth (180°)11.5 mph18.4 mphClear
1:55 AM51.8 °F46.4 °F82 %30.13 in10.0 miSouth (190°)13.8 mphClear
2:55 AM51.8 °F46.4 °F82 %30.15 in10.0 miSouth (190°)12.7 mph19.6 mphClear
3:15 AM50.0 °F46.4 °F87 %30.15 in10.0 miSouth (190°)9.2 mph16.1 mphClear
4:55 AM48.2 °F46.4 °F93 %30.16 in8.0 miSouth (190°)13.8 mph21.9 mphClear
5:15 AM48.2 °F46.4 °F93 %30.16 in8.0 miSouth (190°)12.7 mph19.6 mphClear
5:35 AM48.2 °F46.4 °F93 %30.16 in9.0 miSouth (180°)10.4 mph19.6 mphClear
5:55 AM48.2 °F46.4 °F93 %30.18 in7.0 miSE (140°)8.1 mphClear
6:15 AM48.2 °F46.4 °F93 %30.18 in5.0 miSouth (180°)8.1 mphMostly Cloudy
7:15 AM48.2 °F46.4 °F93 %30.20 in7.0 miSouth (170°)4.6 mphMostly Cloudy
7:35 AM48.2 °F46.4 °F93 %30.20 in8.0 miSouth (170°)8.1 mphMostly Cloudy
8:15 AM50.0 °F46.4 °F87 %30.21 in8.0 miSouth (170°)4.6 mphClear
8:35 AM50.0 °F48.2 °F94 %30.21 in9.0 miSouth (170°)6.9 mphClear
8:55 AM50.0 °F48.2 °F94 %30.21 in9.0 miSouth (180°)6.9 mphClear
9:15 AM53.6 °F48.2 °F82 %30.21 in9.0 miSouth (190°)6.9 mphClear
9:35 AM53.6 °F48.2 °F82 %30.21 in9.0 miSouth (180°)9.2 mphClear
9:55 AM53.6 °F48.2 °F82 %30.20 in9.0 miSouth (180°)5.8 mphClear
10:15 AM53.6 °F48.2 °F82 %30.20 in10.0 miSouth (170°)3.5 mphClear
10:35 AM53.6 °F48.2 °F82 %30.20 in9.0 miSouth (180°)5.8 mphClear
10:55 AM55.4 °F50.0 °F82 %30.21 in10.0 miSouth (190°)6.9 mphClear
11:15 AM55.4 °F50.0 °F82 %30.20 in10.0 miSouth (180°)5.8 mphClear
11:35 AM55.4 °F50.0 °F82 %30.20 in10.0 miCalmClear
11:55 AM55.4 °F50.0 °F82 %30.20 in10.0 miSouth (190°)4.6 mphClear
12:15 PM53.6 °F48.2 °F82 %30.20 in9.0 miNorth (360°)3.5 mphClear
12:35 PM55.4 °F50.0 °F82 %30.20 in10.0 miNorth (360°)3.5 mphClear
1:15 PM57.2 °F50.0 °F77 %30.19 in10.0 miSouth (190°)4.6 mphClear
1:35 PM57.2 °F50.0 °F77 %30.19 in9.0 miSouth (190°)6.9 mphClear
1:55 PM59.0 °F50.0 °F72 %30.18 in9.0 miSouth (180°)6.9 mphClear
2:15 PM59.0 °F51.8 °F77 %30.18 in9.0 miSouth (190°)6.9 mphClear
2:35 PM59.0 °F51.8 °F77 %30.17 in9.0 miSouth (180°)5.8 mphClear
2:55 PM60.8 °F51.8 °F72 %30.17 in9.0 miSouth (180°)6.9 mphClear
3:15 PM60.8 °F51.8 °F72 %30.16 in9.0 miSouth (190°)4.6 mphClear
3:35 PM62.6 °F50.0 °F63 %30.16 in9.0 miSouth (190°)5.8 mphClear
3:55 PM62.6 °F51.8 °F68 %30.15 in9.0 miSouth (170°)4.6 mphClear
4:15 PM62.6 °F51.8 °F68 %30.15 in10.0 miSouth (180°)5.8 mphClear
4:35 PM64.4 °F51.8 °F64 %30.14 in9.0 miSouth (180°)3.5 mphClear
4:55 PM62.6 °F50.0 °F63 %30.14 in10.0 miSSW (200°)6.9 mphClear
5:15 PM62.6 °F50.0 °F63 %30.14 in10.0 miSouth (180°)4.6 mphClear
5:55 PM62.6 °F50.0 °F63 %30.13 in9.0 miSouth (180°)6.9 mphClear
6:15 PM62.6 °F50.0 °F63 %30.12 in10.0 miSouth (180°)6.9 mphClear
6:35 PM62.6 °F50.0 °F63 %30.12 in10.0 miSouth (190°)5.8 mphClear
6:55 PM62.6 °F50.0 °F63 %30.11 in9.0 miSouth (180°)4.6 mphClear
7:15 PM62.6 °F50.0 °F63 %30.11 in10.0 miSouth (180°)5.8 mphClear
7:35 PM62.6 °F50.0 °F63 %30.11 in10.0 miSouth (180°)5.8 mphClear
7:55 PM59.0 °F50.0 °F72 %30.11 in10.0 miSouth (170°)3.5 mphClear
8:15 PM57.2 °F50.0 °F77 %30.11 in10.0 miSouth (180°)4.6 mphClear
8:35 PM57.2 °F48.2 °F72 %30.11 in9.0 miSouth (170°)5.8 mphClear
8:55 PM57.2 °F48.2 °F72 %30.11 in10.0 miSouth (190°)9.2 mphClear
9:15 PM57.2 °F48.2 °F72 %30.12 in10.0 miSouth (170°)4.6 mphClear
9:35 PM55.4 °F48.2 °F77 %30.12 in10.0 miSouth (170°)4.6 mphClear
9:55 PM55.4 °F48.2 °F77 %30.12 in10.0 miSouth (170°)5.8 mphClear
10:15 PM55.4 °F48.2 °F77 %30.12 in10.0 miSouth (170°)5.8 mphClear
10:35 PM53.6 °F48.2 °F82 %30.12 in10.0 miSouth (170°)3.5 mphClear
10:55 PM53.6 °F48.2 °F82 %30.13 in10.0 miSouth (170°)3.5 mphClear
11:15 PM53.6 °F48.2 °F82 %30.13 in10.0 miSouth (180°)8.1 mphClear
11:35 PM53.6 °F46.4 °F77 %30.13 in10.0 miSouth (190°)6.9 mphClear
11:55 PM51.8 °F46.4 °F82 %30.13 in10.0 miSouth (180°)6.9 mphClear
Hourly data recorded from CZBB, located miles away from Vancouver, British Columbia







STORIES FROM OUR PARTNERS